Date String (YYYY-MM-DD hh:mm:ss) UTC,Instrument flags,absolute air pressure of the measurement (hPa),sample flow rate (lpm),inlet stack bypass flow (lpm),air temperature of the measurement (°C),ambient temperature measured by the external sensor (°C),aerosol sample conditioner tube jacket temperature (°C),OPC LED temperature (°C),internal box temperature (°C),relative humidity of the measurement (%),span deviation,mass concentration of particles derived from Lorenz-Mie calculation of OPC scattering (μg/m³),mass concentration of particles derived from Lorenz-Mie calculation of OPC scattering (μg/m³),mass concentration of particles derived from Lorenz-Mie calculation of OPC scattering (μg/m³)
DateTimeUTC,F1_M11,P_M11,Q1_M11,Q2_M11,T1_M11,T2_M11,T3_M11,T4_M11,T5_M11,U1_M11,ZSPAN_M11,X0_M11,X2_M11,X1_M11
2023-06-04 14:00:00,SystemResetWarning,0834.5,5.01,000.00,030.4,028.8,000.0,038.8,032.0,29.0,0000.0,0004.99,0003.28,0002.89
2023-06-04 14:01:00,SystemResetWarning,0834.5,4.99,000.00,030.4,028.8,000.0,038.8,032.0,29.0,0000.0,0005.14,0003.28,0002.85
2023-06-04 14:02:00,SystemResetWarning,0834.5,4.99,000.00,030.4,028.8,000.0,038.8,032.0,29.0,0000.0,0005.24,0003.27,0002.83
2023-06-04 14:03:00,SystemResetWarning,0834.5,5.00,000.00,030.4,028.8,000.0,038.8,032.0,29.0,0000.0,0005.49,0003.28,0002.82
2023-06-04 14:04:00,SystemResetWarning,0834.4,5.01,000.00,030.4,028.8,000.0,038.8,032.0,28.9,0000.0,0005.59,0003.28,0002.78
2023-06-04 14:05:00,SystemResetWarning,0834.5,5.00,000.00,030.4,028.8,000.0,038.8,032.0,28.8,0000.0,0005.57,0003.25,0002.74
2023-06-04 14:06:00,SystemResetWarning,0834.5,5.01,000.00,030.4,028.8,000.0,038.8,032.0,28.8,0000.0,0005.10,0003.22,0002.69
2023-06-04 14:07:00,SystemResetWarning,0834.5,5.00,000.00,030.4,028.8,000.0,038.8,032.0,28.8,0000.0,0004.81,0003.19,0002.65
2023-06-04 14:08:00,SystemResetWarning,0834.8,5.00,000.00,030.4,028.8,000.0,038.8,032.0,28.8,0000.0,0004.84,0003.16,0002.60
2023-06-04 14:09:00,SystemResetWarning,0834.9,5.00,000.00,030.4,028.8,000.0,038.8,032.0,28.7,0000.0,0004.82,0003.12,0002.56
2023-06-04 14:10:00,SystemResetWarning,0835.1,4.99,000.00,030.3,028.8,000.0,038.8,032.0,28.7,0000.0,0004.91,0003.12,0002.51
2023-06-04 14:11:00,SystemResetWarning,0835.0,4.99,000.00,030.3,028.8,000.0,038.8,031.9,28.7,0000.0,0004.98,0003.11,0002.46
2023-06-04 14:12:00,SystemResetWarning,0835.1,5.00,000.00,030.3,028.7,000.0,038.8,031.9,28.7,0000.0,0004.97,0003.10,0002.40
2023-06-04 14:13:00,SystemResetWarning,0835.0,5.01,000.00,030.3,028.7,000.0,038.8,031.9,28.7,0000.0,0004.83,0003.05,0002.34
2023-06-04 14:14:00,SystemResetWarning,0834.8,4.99,000.00,030.3,028.7,000.0,038.8,031.9,28.7,0000.0,0004.68,0002.98,0002.28
2023-06-04 14:15:00,SystemResetWarning,0834.8,4.99,000.00,030.3,028.7,000.0,038.8,031.9,28.7,0000.0,0004.38,0002.87,0002.21
2023-06-04 14:16:00,SystemResetWarning,0834.7,4.99,000.00,030.3,028.7,000.0,038.8,031.9,28.7,0000.0,0004.20,0002.79,0002.17
2023-06-04 14:17:00,SystemResetWarning,0834.6,5.02,000.00,030.3,028.7,000.0,038.8,031.9,28.6,0000.0,0004.11,0002.72,0002.13
2023-06-04 14:18:00,SystemResetWarning,0834.7,5.00,000.00,030.3,028.7,000.0,038.8,031.9,28.6,0000.0,0004.26,0002.73,0002.09
2023-06-04 14:19:00,SystemResetWarning,0834.7,4.99,000.00,030.3,028.7,000.0,038.7,031.9,28.6,0000.0,0004.13,0002.68,0002.07
2023-06-04 14:20:00,SystemResetWarning,0834.9,5.00,000.00,030.3,028.7,000.0,038.7,031.9,28.6,0000.0,0004.06,0002.66,0002.04
2023-06-04 14:21:00,SystemResetWarning,0835.0,5.00,000.00,030.3,028.7,000.0,038.7,031.9,28.5,0000.0,0003.91,0002.59,0002.00
2023-06-04 14:22:00,SystemResetWarning,0835.1,5.00,000.00,030.3,028.7,000.0,038.7,031.9,28.6,0000.0,0003.83,0002.56,0001.97
2023-06-04 14:23:00,SystemResetWarning,0835.0,5.01,000.00,030.3,028.7,000.0,038.7,031.9,28.6,0000.0,0003.66,0002.50,0001.95
2023-06-04 14:24:00,SystemResetWarning,0835.0,5.01,000.00,030.3,028.7,000.0,038.7,031.9,28.6,0000.0,0003.56,0002.46,0001.93
2023-06-04 14:25:00,SystemResetWarning,0835.1,4.99,000.00,030.3,028.7,000.0,038.7,031.9,28.6,0000.0,0003.61,0002.47,0001.93
2023-06-04 14:26:00,SystemResetWarning,0834.9,5.00,000.00,030.3,028.7,000.0,038.7,031.9,28.6,0000.0,0003.56,0002.44,0001.92
2023-06-04 14:27:00,SystemResetWarning,0834.7,4.99,000.00,030.3,028.7,000.0,038.7,031.9,28.6,0000.0,0003.54,0002.41,0001.89
2023-06-04 14:28:00,SystemResetWarning,0834.6,5.00,000.00,030.3,028.7,000.0,038.7,031.9,28.6,0000.0,0003.67,0002.47,0001.87
2023-06-04 14:29:00,SystemResetWarning,0834.7,5.02,000.00,030.3,028.7,000.0,038.7,031.9,28.6,0000.0,0003.47,0002.41,0001.86
2023-06-04 14:30:00,SystemResetWarning,0834.6,5.01,000.00,030.3,028.7,000.0,038.7,031.9,28.6,0000.0,0003.47,0002.42,0001.84
2023-06-04 14:31:00,SystemResetWarning,0834.6,4.99,000.00,030.3,028.7,000.0,038.7,031.9,28.6,0000.0,0003.57,0002.44,0001.84
2023-06-04 14:32:00,SystemResetWarning,0834.6,4.99,000.00,030.3,028.7,000.0,038.7,031.9,28.6,0000.0,0003.55,0002.42,0001.84
2023-06-04 14:33:00,SystemResetWarning,0834.7,5.00,000.00,030.3,028.7,000.0,038.7,031.9,28.6,0000.0,0003.55,0002.42,0001.83
2023-06-04 14:34:00,SystemResetWarning,0834.6,5.00,000.00,030.3,028.7,000.0,038.7,031.9,28.6,0000.0,0003.48,0002.39,0001.84
2023-06-04 14:35:00,SystemResetWarning,0834.6,5.00,000.00,030.3,028.7,000.0,038.7,031.9,28.7,0000.0,0003.44,0002.38,0001.84
2023-06-04 14:36:00,SystemResetWarning,0834.6,5.00,000.00,030.3,028.7,000.0,038.7,031.9,28.8,0000.0,0003.31,0002.33,0001.82
2023-06-04 14:37:00,SystemResetWarning,0835.0,5.00,000.00,030.3,028.7,000.0,038.7,031.9,28.8,0000.0,0003.31,0002.35,0001.82
2023-06-04 14:38:00,SystemResetWarning,0834.9,4.99,000.00,030.3,028.7,000.0,038.7,031.9,28.8,0000.0,0003.42,0002.40,0001.83
2023-06-04 14:39:00,SystemResetWarning,0834.5,4.99,000.00,030.3,028.7,000.0,038.7,031.9,28.8,0000.0,0003.38,0002.37,0001.84
2023-06-04 14:40:00,SystemResetWarning,0834.7,4.99,000.00,030.3,028.7,000.0,038.7,031.9,28.8,0000.0,0003.45,0002.40,0001.84
2023-06-04 14:41:00,SystemResetWarning,0834.8,5.00,000.00,030.3,028.7,000.0,038.7,031.9,28.8,0000.0,0003.77,0002.42,0001.85
2023-06-04 14:42:00,SystemResetWarning,0834.7,5.01,000.00,030.3,028.7,000.0,038.7,031.9,28.8,0000.0,0003.70,0002.38,0001.85
2023-06-04 14:43:00,SystemResetWarning,0834.7,5.01,000.00,030.3,028.7,000.0,038.7,031.9,28.8,0000.0,0003.69,0002.34,0001.84
2023-06-04 14:44:00,SystemResetWarning,0834.6,5.00,000.00,030.3,028.7,000.0,038.7,031.9,28.8,0000.0,0005.30,0002.36,0001.85
2023-06-04 14:45:00,SystemResetWarning,0834.6,5.00,000.00,030.3,028.7,000.0,038.7,031.9,28.8,0000.0,0005.59,0002.39,0001.85
2023-06-04 14:46:00,SystemResetWarning,0834.6,5.00,000.00,030.3,028.7,000.0,038.7,031.9,28.8,0000.0,0005.55,0002.37,0001.84
2023-06-04 14:47:00,SystemResetWarning,0834.6,5.00,000.00,030.3,028.7,000.0,038.7,031.9,28.8,0000.0,0005.60,0002.37,0001.85
2023-06-04 14:48:00,SystemResetWarning,0834.6,5.00,000.00,030.3,028.7,000.0,038.7,031.9,28.8,0000.0,0005.66,0002.38,0001.87
2023-06-04 14:49:00,SystemResetWarning,0834.7,5.01,000.00,030.3,028.7,000.0,038.7,031.9,28.8,0000.0,0005.65,0002.36,0001.88
2023-06-04 14:50:00,SystemResetWarning,0834.8,5.00,000.00,030.3,028.7,000.0,038.7,031.9,28.9,0000.0,0005.58,0002.34,0001.89
2023-06-04 14:51:00,SystemResetWarning,0834.7,5.01,000.00,030.3,028.7,000.0,038.7,031.9,29.0,0000.0,0005.52,0002.31,0001.89
2023-06-04 14:52:00,SystemResetWarning,0834.6,5.00,000.00,030.3,028.7,000.0,038.7,031.9,28.9,0000.0,0005.14,0002.27,0001.90
2023-06-04 14:53:00,SystemResetWarning,0834.7,5.00,000.00,030.3,028.7,000.0,038.7,031.9,29.0,0000.0,0005.06,0002.27,0001.90
2023-06-04 14:54:00,SystemResetWarning,0834.8,4.99,000.00,030.3,028.7,000.0,038.7,031.9,29.0,0000.0,0005.07,0002.31,0001.92
2023-06-04 14:55:00,SystemResetWarning,0835.0,4.99,000.00,030.3,028.7,000.0,038.7,031.9,29.0,0000.0,0003.51,0002.34,0001.94
2023-06-04 14:56:00,SystemResetWarning,0835.0,5.00,000.00,030.3,028.7,000.0,038.7,031.9,29.0,0000.0,0003.67,0002.34,0001.95
2023-06-04 14:57:00,SystemResetWarning,0835.1,5.00,000.00,030.3,028.7,000.0,038.7,031.9,29.1,0000.0,0004.27,0002.38,0001.97
2023-06-04 14:58:00,SystemResetWarning,0834.5,5.01,000.00,030.3,028.7,000.0,038.7,031.9,29.1,0000.0,0004.39,0002.45,0001.98
2023-06-04 14:59:00,SystemResetWarning,0834.5,5.00,000.00,030.3,028.7,000.0,038.7,031.9,29.1,0000.0,0004.42,0002.47,0001.99
